Powrót do katalogu

FENGYUN 1C DEB

LostPO
NORAD 37440·DEBRIS·🇨🇳 China

Wystrzelony May 10, 1999 z Taiyuan Satellite Launch Center

Loading…

Następne Przeloty (najbliższe 24 godziny)

TLE

NieaktualneSource: Space-Track

Epoka: Aug 2, 2022, 05:11 UTC

1 37440U 99025EHJ 22214.21664166  .00002096  00000-0  74444-3 0  9999
2 37440  99.0194  31.0852 0066522  49.1287 311.5634 14.34299168783854

Śledź FENGYUN 1C DEB w czasie rzeczywistym z AllMySat

Download on the App Store